FW7842 Weather Reports


time (UTC)temp
F
wind
direction
speed
knots
gust
knots
rain 1hr
in
rain 24hr
in
rain mn
in
humidity
%
barometer
mb
20260906010533 56 0.0 0.0 0.00 0.01 0.00 82 1021.3
20260906005528 56 0.0 0.0 0.00 0.01 0.00 81 1021.3
20260906004533 56 0.0 0.0 0.00 0.01 0.00 80 1021.2
20260906003528 56 0.0 0.0 0.00 0.01 0.00 79 1021.1
20260906002533 57 0.0 0.0 0.00 0.01 0.00 77 1021.1
20260906001528 58 0.0 0.0 0.00 0.01 0.00 76 1021.0
20260906000533 58 0.0 0.0 0.00 0.01 0.00 75 1020.9
20260905235529 59 0.0 0.0 0.00 0.01 0.01 74 1020.9
20260905234533 60 0.0 0.0 0.00 0.01 0.01 72 1020.9
20260905233528 62 0.0 0.0 0.00 0.01 0.01 69 1021.1
20260905232533 63 162 0.0 0.9 0.00 0.01 0.01 67 1021.0
20260905231528 64 70 0.0 0.9 0.00 0.01 0.01 65 1020.9
20260905230533 63 27 0.0 0.9 0.00 0.01 0.01 66 1020.8
20260905225528 63 30 0.0 0.9 0.00 0.01 0.01 66 1020.9
20260905224553 63 12 0.0 2.6 0.00 0.01 0.01 67 1020.8
20260905223529 63 325 0.0 4.3 0.00 0.01 0.01 68 1020.7
20260905222520 62 72 0.0 0.9 0.00 0.01 0.01 69 1020.7
20260905221534 63 0.0 0.0 0.00 0.01 0.01 68 1020.8
20260905220533 64 0.0 0.0 0.00 0.01 0.01 67 1020.8
20260905215528 64 26 0.0 0.9 0.00 0.01 0.01 66 1020.9
20260905214521 65 4 0.0 2.6 0.00 0.01 0.01 65 1020.7
20260905213528 64 46 0.0 0.9 0.00 0.01 0.01 66 1020.6
20260905212533 63 49 0.0 0.9 0.00 0.01 0.01 68 1020.6
20260905211529 62 38 0.0 3.5 0.00 0.01 0.01 69 1020.6
20260905210521 60 353 0.0 4.3 0.00 0.01 0.01 72 1020.6
20260905205528 59 23 0.0 0.9 0.00 0.01 0.01 74 1020.6
20260905204520 59 0.0 0.0 0.00 0.01 0.01 73 1020.5
20260905203528 60 0.0 0.0 0.00 0.01 0.01 71 1020.3
20260905202533 60 0.0 0.0 0.00 0.01 0.01 70 1020.2
20260905201528 60 91 0.0 0.9 0.00 0.01 0.01 71 1020.1
20260905200553 59 24 0.0 0.9 0.00 0.01 0.01 73 1019.9
20260905195529 59 0.0 0.0 0.00 0.01 0.01 72 1019.9
20260905194533 58 74 0.0 0.9 0.00 0.01 0.01 73 1019.9
20260905193528 58 0.0 0.0 0.00 0.01 0.01 73 1019.6
20260905192534 59 0.0 0.0 0.00 0.01 0.01 72 1019.5
20260905191528 59 0.0 0.0 0.00 0.01 0.01 70 1019.4
20260905190521 60 0.0 0.0 0.00 0.01 0.01 68 1019.3
20260905185528 61 0.0 0.0 0.00 0.01 0.01 66 1019.3
20260905184533 62 0.0 0.0 0.00 0.01 0.01 65 1019.2
20260905183529 63 0.0 0.0 0.00 0.01 0.01 63 1019.2
20260905182520 63 0.0 0.0 0.00 0.01 0.01 61 1019.1
20260905181614 64 0.0 0.0 0.00 0.01 0.01 60 1018.8
20260905180520 64 0.0 0.0 0.00 0.01 0.01 59 1018.7
20260905175528 66 0.0 0.0 0.00 0.01 0.01 56 1018.7
20260905174521 68 0.0 0.0 0.00 0.01 0.01 52 1018.7
20260905173529 69 8 0.0 0.9 0.00 0.01 0.01 50 1018.7
20260905172533 70 21 0.0 2.6 0.00 0.01 0.01 49 1018.6
20260905171529 71 97 0.0 0.9 0.00 0.01 0.01 47 1018.4
20260905170533 71 31 0.0 0.9 0.00 0.01 0.01 47 1018.2
20260905165549 72 88 0.0 0.9 0.00 0.01 0.01 45 1018.1
20260905164533 73 29 0.0 2.6 0.00 0.01 0.01 44 1018.1
20260905163648 74 11 0.9 3.5 0.00 0.01 0.01 43 1018.1
20260905162553 74 22 1.7 4.3 0.00 0.01 0.01 46 1018.1
20260905161609 75 17 0.9 3.5 0.00 0.01 0.01 48 1017.9
20260905160533 75 56 0.0 2.6 0.00 0.01 0.01 48 1017.8
20260905155528 75 34 0.9 3.5 0.00 0.01 0.01 48 1017.6
20260905154534 75 83 0.0 2.6 0.00 0.01 0.01 49 1017.9
20260905153530 75 136 0.9 3.5 0.00 0.01 0.01 51 1017.9
20260905152520 74 151 0.0 2.6 0.00 0.01 0.01 55 1017.8
20260905151548 74 128 0.9 3.5 0.00 0.01 0.01 54 1017.7
20260905150542 75 116 0.9 4.3 0.00 0.01 0.01 52 1017.7
20260905145529 75 114 0.9 2.6 0.00 0.01 0.01 51 1017.7
20260905144541 75 131 0.9 4.3 0.00 0.01 0.01 53 1017.9
20260905143529 75 118 0.9 3.5 0.00 0.01 0.01 51 1017.7
20260905142534 74 52 0.0 2.6 0.00 0.01 0.01 52 1017.7
20260905141609 74 254 0.0 0.9 0.00 0.01 0.01 53 1017.6
20260905140534 73 36 0.9 2.6 0.00 0.01 0.01 56 1017.7
20260905135530 73 45 0.9 2.6 0.00 0.01 0.01 56 1017.8
20260905134521 72 24 0.0 0.9 0.00 0.01 0.01 60 1017.7
20260905133534 71 69 0.0 0.9 0.00 0.01 0.01 60 1017.8
20260905132521 71 24 0.9 2.6 0.00 0.01 0.01 62 1017.9
20260905131529 71 358 0.0 3.5 0.00 0.01 0.01 63 1017.9
20260905130522 70 21 0.9 3.5 0.01 0.01 0.01 64 1018.0
20260905125529 69 30 0.0 0.9 0.01 0.01 0.01 66 1018.5
20260905124533 66 71 0.0 2.6 0.01 0.01 0.01 73 1018.6
20260905123530 65 25 0.0 0.9 0.01 0.01 0.01 76 1018.7
20260905122540 67 38 0.0 0.9 0.01 0.01 0.01 74 1018.7
20260905121534 70 4 0.9 3.5 0.01 0.01 0.01 63 1018.1
20260905120521 76 6 1.7 7.8 0.00 0.00 0.00 43 1017.8
20260905115529 78 357 1.7 7.0 0.00 0.00 0.00 37 1017.9
20260905114533 80 12 1.7 7.0 0.00 0.00 0.00 36 1017.7
20260905113529 84 4 2.6 7.0 0.00 0.00 0.00 33 1017.3
20260905112533 87 353 2.6 7.8 0.00 0.00 0.00 32 1017.0
20260905111530 86 18 1.7 3.5 0.00 0.00 0.00 32 1017.1
20260905110533 85 36 1.7 3.5 0.00 0.00 0.00 33 1017.0
20260905105529 84 349 1.7 7.0 0.00 0.00 0.00 33 1017.1
20260905104533 86 353 1.7 7.8 0.00 0.00 0.00 31 1017.2
20260905103530 84 330 2.6 7.0 0.00 0.00 0.00 33 1017.5
20260905102521 84 2 1.7 5.2 0.00 0.00 0.00 34 1017.6
20260905101535 84 353 3.5 7.8 0.00 0.00 0.00 33 1017.5
20260905100521 84 341 4.3 7.8 0.00 0.00 0.00 34 1017.8
20260905095549 81 5 2.6 8.7 0.00 0.00 0.00 38 1017.8
20260905094522 79 342 2.6 8.7 0.00 0.00 0.00 40 1017.9
20260905093529 79 343 2.6 8.7 0.00 0.00 0.00 42 1018.0
20260905092553 79 332 6.1 16.5 0.00 0.00 0.00 44 1017.9
20260905091550 80 340 5.2 13.9 0.00 0.00 0.00 44 1017.7
20260905090521 80 342 5.2 15.6 0.00 0.00 0.00 46 1017.4
20260905085535 79 351 4.3 15.6 0.00 0.00 0.00 48 1017.3
20260905084533 81 353 4.3 12.2 0.00 0.00 0.00 46 1017.1
20260905083529 83 338 4.3 13.9 0.00 0.00 0.00 43 1016.5
20260905082522 85 348 4.3 13.0 0.00 0.00 0.00 41 1016.0
20260905081529 85 344 3.5 8.7 0.00 0.00 0.00 41 1015.5
20260905080533 85 356 3.5 7.0 0.00 0.00 0.00 40 1015.4
20260905075529 85 17 2.6 7.0 0.00 0.00 0.00 42 1015.3
20260905074533 83 356 2.6 7.8 0.00 0.00 0.00 44 1015.0
20260905073529 81 39 1.7 4.3 0.00 0.00 0.00 46 1014.8
20260905072534 79 54 0.9 4.3 0.00 0.00 0.00 48 1014.7
20260905071549 77 53 0.0 0.9 0.00 0.00 0.00 51 1014.4
20260905070553 77 139 0.9 3.5 0.00 0.00 0.00 51 1014.2
20260905065531 76 118 0.0 0.9 0.00 0.00 0.00 52 1014.1
20260905064533 76 80 0.0 0.9 0.00 0.00 0.00 52 1013.9
20260905063555 75 112 0.0 2.6 0.00 0.00 0.00 53 1013.8
20260905062521 74 119 0.9 2.6 0.00 0.00 0.00 55 1013.9
20260905061529 71 122 0.0 2.6 0.00 0.00 0.00 59 1014.1
20260905060522 69 137 0.0 0.9 0.00 0.00 0.00 64 1013.9
20260905055555 66 0.0 0.0 0.00 0.00 0.00 69 1013.9
20260905054533 66 112 0.0 0.9 0.00 0.00 0.00 69 1013.9
20260905053530 66 105 0.0 0.9 0.00 0.00 0.00 68 1013.9
20260905052521 66 0.0 0.0 0.00 0.00 0.00 68 1013.7
20260905051535 66 0.0 0.0 0.00 0.00 0.00 68 1013.5
20260905050641 66 0.0 0.0 0.00 0.00 0.00 67 1013.4
20260905045529 64 0.0 0.0 0.00 0.00 0.00 68 1013.4
20260905044533 63 0.0 0.0 0.00 0.00 0.00 70 1013.5
20260905043529 63 0.0 0.0 0.00 0.00 0.00 70 1013.3
20260905042533 63 0.0 0.0 0.00 0.00 0.00 70 1013.4
20260905041530 64 0.0 0.0 0.00 0.00 0.00 69 1013.2
20260905040533 64 0.0 0.0 0.00 0.00 0.00 67 1013.2
20260905035529 65 0.0 0.0 0.00 0.00 0.00 67 1013.0
20260905034533 65 0.0 0.0 0.00 0.00 0.00 67 1013.0
20260905033529 64 0.0 0.0 0.00 0.00 0.00 67 1012.9
20260905032522 63 103 0.0 0.9 0.00 0.00 0.00 68 1013.1
20260905031530 64 0.0 0.0 0.00 0.00 0.00 68 1013.0
20260905030533 64 0.0 0.0 0.00 0.00 0.00 67 1013.1
20260905025550 65 0.0 0.0 0.00 0.00 0.00 66 1013.1
20260905024521 66 0.0 0.0 0.00 0.00 0.00 64 1013.1
20260905023535 67 0.0 0.0 0.00 0.00 0.00 62 1013.1
20260905022533 66 128 0.0 2.6 0.00 0.00 0.00 63 1013.1
20260905021530 65 135 0.0 0.9 0.00 0.00 0.00 65 1013.1
20260905015529 61 0.0 0.0 0.00 0.00 0.00 74 1013.1
20260905014553 60 0.0 0.0 0.00 0.00 0.00 75 1012.8
20260905013530 60 0.0 0.0 0.00 0.00 0.00 76 1013.0
20260905012533 60 0.0 0.0 0.00 0.00 0.00 76 1012.8
20260905011529 60 0.0 0.0 0.00 0.00 0.00 74 1012.9